SES-12

Last updated on Tue Oct 28 2025 00:02:50 GMT+0000 (Coordinated Universal Time)

1 43488U 18049A 25300.54479666 -.00000259 00000+0 00000+0 0 9991 2 43488 0.0349 60.7677 0002072 186.7465 79.7998 1.00270981 27080
UTC large
Height (km)
Speed (km/s)
/
Latitude / Longitude
Inclination (degrees)
Orbital Period (minutes)
Azimuth
Elevation
Range (km)
Doppler Factor

Next 0 passes for location: London (51.5072 / 0.1276)

Sorry there are no passes over London.